SCP
2 2 2 0 1 1 1 1 1 1 1 0 0 0 0 0 0 0 0 0 -0 0 0 0 0 0 0 0 0 0 0 0
2 2 2 1 1 1 1 1 1 1 1 1 0 0 0 0 0 0 0 0 -0 -0 0 0 0 0 0 0 0 0 0 0
1 1 2 1 1 1 1 1 0 1 0 0 0 0 0 0 0 0 0 -0 -0 0 0 0 0 0 0 0 0 0 0 0
1 2 2 2 1 1 0 0 0 0 0 0 0 0 0 0 0 0 0 0 -0 -0 0 0 0 0 0 0 0 0 0 0
0 0 4 3 1 1 0 1 1 1 0 0 0 0 0 0 0 0 0 -0 -0 -0 0 0 0 0 0 0 0 0 0 0
0 4 4 2 1 1 1 1 1 0 1 0 0 0 0 0 0 0 -0 -0 -0 -0 0 0 0 0 0 0 0 0 0 0
0 2 2 1 1 1 0 0 0 0 1 1 0 0 0 0 0 0 0 -0 0 0 0 0 1 1 1 0 0 0 1 0
0 1 1 0 0 0 0 0 0 0 1 1 -0 1 0 1 1 0 0 0 0 0 1 1 1 1 1 1 0 1 0 0
0 0 0 0 0 0 0 0 0 0 1 1 2 1 3 2 2 1 1 1 1 1 1 1 1 1 1 0 0 0 0 0
0 0 0 0 0 0 0 0 0 0 0 1 1 1 2 2 2 2 1 1 1 1 1 1 1 1 1 1 0 0 0 0
0 0 0 0 0 0 0 0 0 0 0 0 2 1 1 2 1 0 1 1 1 1 1 1 1 1 1 1 0 0 0 0
0 0 0 0 0 0 0 0 0 0 0 0 0 0 0 0 0 1 0 1 1 1 1 1 1 1 0 0 0 0 0 0
0 0 1 0 0 0 0 -0 -0 -0 -0 0 0 0 0 0 1 0 1 1 1 1 1 1 0 0 0 0 0 0 0 0
0 0 2 1 1 1 0 0 0 -0 -0 -0 -0 0 0 0 1 1 0 0 1 1 0 0 0 0 0 0 0 0 0 0
0 1 2 1 1 0 1 1 1 1 1 0 0 0 0 0 0 1 0 1 0 0 0 0 0 0 0 0 0 0 0 0
0 2 2 1 0 0 1 2 1 1 0 0 0 0 0 0 1 0 0 0 0 0 0 0 0 0 0 0 0 0 0 0
0 2 3 1 2 2 2 1 1 0 0 0 0 0 0 0 0 0 0 0 0 0 0 0 0 0 0 0 0 0 0 0
0 4 3 4 5 3 2 1 0 0 0 0 0 0 0 0 0 0 0 0 0 0 0 0 0 0 0 0 0 0 0 0
4 4 4 3 2 1 1 0 0 0 0 0 0 0 0 0 0 0 0 0 0 0 0 0 0 0 0 0 0 0 0 0
3 4 3 2 1 0 0 0 0 0 0 0 0 0 0 0 0 0 0 0 0 0 0 0 0 0 0 0 0 0 0 0
Wind_Speed_500mb
90 80 70 66 67 69 74 70 65 61 57 54 50 44 38 34 30 28 27 26 25 22 19 13 7 9 9 9 7 9 9 7
84 75 67 63 63 62 62 68 63 61 56 51 45 41 36 32 29 27 26 25 23 20 14 13 11 8 15 13 5 10 3 5
95 71 65 59 64 64 61 70 65 61 54 49 45 41 35 30 28 25 24 24 22 15 14 11 3 2 1 7 9 11 13 15
97 87 80 73 77 74 68 71 65 54 46 44 40 35 32 30 27 23 22 22 19 15 9 8 6 7 5 7 10 14 18 21
82 89 85 91 89 78 73 71 67 53 38 26 25 25 31 30 30 26 27 28 21 14 8 2 9 9 14 18 22 30 31 37
67 61 63 89 87 83 81 59 64 54 32 38 41 34 32 26 24 27 22 22 24 18 18 14 18 19 24 27 27 30 34 44
43 41 47 64 80 87 72 64 67 58 68 68 59 48 42 40 32 31 26 25 28 21 22 27 28 29 24 25 29 41 47 46
33 27 33 50 62 60 64 62 63 48 84 70 47 51 40 42 38 34 27 35 31 26 29 28 32 34 41 41 38 37 42 46
36 24 28 48 62 77 67 70 63 75 80 66 58 62 45 45 41 41 35 40 39 33 26 30 34 40 46 47 46 47 48 50
43 36 34 47 53 66 73 67 62 63 65 73 59 60 49 45 42 46 38 35 42 36 34 36 38 40 42 42 41 44 43 44
48 47 38 44 56 59 67 67 47 56 78 69 75 68 50 43 46 54 42 34 34 34 34 36 32 29 32 36 37 33 30 32
70 63 47 44 45 54 63 71 58 53 64 80 81 89 70 69 65 46 40 25 29 30 29 30 29 27 25 25 25 26 27 21
79 75 65 44 49 64 62 70 55 48 52 70 88 76 75 62 53 48 31 28 29 28 28 26 23 23 23 23 21 19 20 27
72 69 67 57 63 76 67 65 58 51 53 57 65 73 69 57 45 37 33 30 28 23 24 23 23 23 20 15 16 19 23 28
68 74 68 62 68 76 71 70 60 58 44 42 48 43 49 31 34 34 37 30 19 14 19 22 20 18 18 18 19 22 26 29
60 70 69 71 76 77 75 61 58 44 42 38 34 30 26 42 34 35 27 16 13 15 14 15 17 20 22 22 22 25 30 32
65 65 74 83 81 74 65 56 49 43 39 37 33 22 32 41 41 35 28 21 15 15 17 16 20 23 23 22 22 24 27 31
69 76 82 90 86 70 60 55 52 43 41 38 34 29 30 37 39 36 32 23 14 11 11 14 15 18 23 26 29 32 35 37
78 78 81 79 71 63 63 61 54 48 43 42 37 33 40 41 34 27 18 14 8 6 9 12 17 24 28 32 36 39 42 45
82 88 88 82 82 73 70 66 60 53 47 47 40 35 28 19 19 18 15 12 9 9 10 15 19 23 28 33 38 43 45 45
Wind_Direction_500mb
180 181 185 186 183 183 188 188 187 185 185 184 185 188 188 188 188 186 184 184 187 187 189 186 136 81 17 277 310 336 294 296
185 185 187 186 184 185 187 191 188 190 191 191 192 191 193 193 190 189 189 185 181 179 174 148 126 75 49 64 41 355 351 295
188 191 190 189 189 187 188 188 193 195 194 197 198 199 200 200 199 194 197 193 190 167 151 165 151 301 345 338 327 307 298 292
185 189 192 193 192 190 182 183 194 194 198 207 208 209 215 214 213 208 206 207 201 184 156 224 240 264 289 305 298 295 292 300
187 182 191 195 193 186 174 182 187 185 191 197 210 219 224 233 228 214 211 209 208 192 164 237 266 283 285 283 282 287 293 293
193 192 178 194 190 182 173 180 177 173 178 224 220 217 203 194 193 190 181 178 196 203 196 224 250 258 272 281 280 278 275 281
186 181 194 180 190 187 187 192 201 215 212 224 217 215 199 199 200 196 204 207 199 213 212 219 238 246 261 253 259 269 274 285
167 160 162 169 180 192 190 193 208 206 199 205 214 216 206 214 208 202 204 214 210 213 217 233 248 258 257 255 261 269 281 289
181 184 168 165 175 186 188 188 189 198 200 217 205 207 211 220 223 225 215 211 209 217 234 245 256 260 255 259 266 271 281 292
198 205 192 184 182 187 188 191 188 205 209 207 208 207 211 208 220 225 219 212 214 222 231 256 266 261 263 270 280 285 292 294
215 196 201 188 187 190 191 186 203 205 204 214 210 202 211 201 224 222 207 202 219 229 248 256 256 270 277 281 288 292 295 302
222 222 208 203 198 197 189 194 201 199 213 214 205 203 213 215 205 208 214 209 229 233 235 250 270 281 285 288 287 295 295 296
218 219 225 220 219 188 186 194 199 213 216 212 203 204 214 212 212 213 215 216 204 223 245 258 273 285 293 287 290 292 291 286
219 217 215 216 197 181 184 184 197 204 209 217 210 217 212 213 207 205 198 201 211 226 242 256 271 273 277 276 273 274 278 280
207 209 204 194 187 183 185 191 194 194 210 209 213 216 210 210 183 174 219 203 201 225 244 249 264 271 277 274 277 281 281 285
199 207 200 187 182 182 187 201 196 195 195 205 211 207 194 186 180 183 202 203 213 230 231 238 252 262 269 278 286 286 287 291
193 195 188 181 179 174 183 180 167 168 181 191 204 181 172 175 179 183 193 204 215 194 201 219 247 261 273 283 290 293 294 292
180 176 174 170 167 167 163 156 155 160 168 177 173 167 168 167 173 182 188 193 194 212 240 249 259 279 293 303 310 304 302 302
139 146 159 163 163 170 157 155 157 155 162 168 173 174 161 156 161 158 169 186 203 238 251 274 288 296 302 304 305 305 309 311
130 137 146 148 155 156 149 153 159 163 170 160 159 164 154 170 164 161 169 181 192 228 277 290 291 298 305 311 314 317 318 319
Wind_Speed_850mb
90 80 70 66 67 69 74 70 65 61 57 54 50 44 38 34 30 28 27 26 25 22 19 13 7 9 9 9 7 9 9 7
84 75 67 63 63 62 62 68 63 61 56 51 45 41 36 32 29 27 26 25 23 20 14 13 11 8 15 13 5 10 3 5
95 71 65 59 64 64 61 70 65 61 54 49 45 41 35 30 28 25 24 24 22 15 14 11 3 2 1 7 9 11 13 15
97 87 80 73 77 74 68 71 65 54 46 44 40 35 32 30 27 23 22 22 19 15 9 8 6 7 5 7 10 14 18 21
82 89 85 91 89 78 73 71 67 53 38 26 25 25 31 30 30 26 27 28 21 14 8 2 9 9 14 18 22 30 31 37
67 61 63 89 87 83 81 59 64 54 32 38 41 34 32 26 24 27 22 22 24 18 18 14 18 19 24 27 27 30 34 44
43 41 47 64 80 87 72 64 67 58 68 68 59 48 42 40 32 31 26 25 28 21 22 27 28 29 24 25 29 41 47 46
33 27 33 50 62 60 64 62 63 48 84 70 47 51 40 42 38 34 27 35 31 26 29 28 32 34 41 41 38 37 42 46
36 24 28 48 62 77 67 70 63 75 80 66 58 62 45 45 41 41 35 40 39 33 26 30 34 40 46 47 46 47 48 50
43 36 34 47 53 66 73 67 62 63 65 73 59 60 49 45 42 46 38 35 42 36 34 36 38 40 42 42 41 44 43 44
48 47 38 44 56 59 67 67 47 56 78 69 75 68 50 43 46 54 42 34 34 34 34 36 32 29 32 36 37 33 30 32
70 63 47 44 45 54 63 71 58 53 64 80 81 89 70 69 65 46 40 25 29 30 29 30 29 27 25 25 25 26 27 21
79 75 65 44 49 64 62 70 55 48 52 70 88 76 75 62 53 48 31 28 29 28 28 26 23 23 23 23 21 19 20 27
72 69 67 57 63 76 67 65 58 51 53 57 65 73 69 57 45 37 33 30 28 23 24 23 23 23 20 15 16 19 23 28
68 74 68 62 68 76 71 70 60 58 44 42 48 43 49 31 34 34 37 30 19 14 19 22 20 18 18 18 19 22 26 29
60 70 69 71 76 77 75 61 58 44 42 38 34 30 26 42 34 35 27 16 13 15 14 15 17 20 22 22 22 25 30 32
65 65 74 83 81 74 65 56 49 43 39 37 33 22 32 41 41 35 28 21 15 15 17 16 20 23 23 22 22 24 27 31
69 76 82 90 86 70 60 55 52 43 41 38 34 29 30 37 39 36 32 23 14 11 11 14 15 18 23 26 29 32 35 37
78 78 81 79 71 63 63 61 54 48 43 42 37 33 40 41 34 27 18 14 8 6 9 12 17 24 28 32 36 39 42 45
82 88 88 82 82 73 70 66 60 53 47 47 40 35 28 19 19 18 15 12 9 9 10 15 19 23 28 33 38 43 45 45
Wind_Direction_850mb
180 181 185 186 183 183 188 188 187 185 185 184 185 188 188 188 188 186 184 184 187 187 189 186 136 81 17 277 310 336 294 296
185 185 187 186 184 185 187 191 188 190 191 191 192 191 193 193 190 189 189 185 181 179 174 148 126 75 49 64 41 355 351 295
188 191 190 189 189 187 188 188 193 195 194 197 198 199 200 200 199 194 197 193 190 167 151 165 151 301 345 338 327 307 298 292
185 189 192 193 192 190 182 183 194 194 198 207 208 209 215 214 213 208 206 207 201 184 156 224 240 264 289 305 298 295 292 300
187 182 191 195 193 186 174 182 187 185 191 197 210 219 224 233 228 214 211 209 208 192 164 237 266 283 285 283 282 287 293 293
193 192 178 194 190 182 173 180 177 173 178 224 220 217 203 194 193 190 181 178 196 203 196 224 250 258 272 281 280 278 275 281
186 181 194 180 190 187 187 192 201 215 212 224 217 215 199 199 200 196 204 207 199 213 212 219 238 246 261 253 259 269 274 285
167 160 162 169 180 192 190 193 208 206 199 205 214 216 206 214 208 202 204 214 210 213 217 233 248 258 257 255 261 269 281 289
181 184 168 165 175 186 188 188 189 198 200 217 205 207 211 220 223 225 215 211 209 217 234 245 256 260 255 259 266 271 281 292
198 205 192 184 182 187 188 191 188 205 209 207 208 207 211 208 220 225 219 212 214 222 231 256 266 261 263 270 280 285 292 294
215 196 201 188 187 190 191 186 203 205 204 214 210 202 211 201 224 222 207 202 219 229 248 256 256 270 277 281 288 292 295 302
222 222 208 203 198 197 189 194 201 199 213 214 205 203 213 215 205 208 214 209 229 233 235 250 270 281 285 288 287 295 295 296
218 219 225 220 219 188 186 194 199 213 216 212 203 204 214 212 212 213 215 216 204 223 245 258 273 285 293 287 290 292 291 286
219 217 215 216 197 181 184 184 197 204 209 217 210 217 212 213 207 205 198 201 211 226 242 256 271 273 277 276 273 274 278 280
207 209 204 194 187 183 185 191 194 194 210 209 213 216 210 210 183 174 219 203 201 225 244 249 264 271 277 274 277 281 281 285
199 207 200 187 182 182 187 201 196 195 195 205 211 207 194 186 180 183 202 203 213 230 231 238 252 262 269 278 286 286 287 291
193 195 188 181 179 174 183 180 167 168 181 191 204 181 172 175 179 183 193 204 215 194 201 219 247 261 273 283 290 293 294 292
180 176 174 170 167 167 163 156 155 160 168 177 173 167 168 167 173 182 188 193 194 212 240 249 259 279 293 303 310 304 302 302
139 146 159 163 163 170 157 155 157 155 162 168 173 174 161 156 161 158 169 186 203 238 251 274 288 296 302 304 305 305 309 311
130 137 146 148 155 156 149 153 159 163 170 160 159 164 154 170 164 161 169 181 192 228 277 290 291 298 305 311 314 317 318 319